Location: Newark
(37.6833°N, 14.0333°E)
Time: 08:18:10
(UTC+00:00)

ISS - Visible Passes

Search period start: 12 November 2019 00:00
Search period end: 22 November 2019 00:00
Orbit: 412 x 421 km, 51.6° (Epoch: 12 November)

Date Brightness Start Highest point End Pass type
(mag) Time Alt. Az. Time Alt. Az. Time Alt. Az.
12 Nov -3.4 04:01:35 51° N 04:02:05 58° NE 04:05:24 10° ESE visible
13 Nov -0.9 03:15:36 18° E 03:15:36 18° E 03:16:46 10° E visible
13 Nov -2.3 04:48:32 16° W 04:50:16 23° SW 04:52:59 10° S visible
14 Nov -2.9 04:02:37 38° SSW 04:02:37 38° SSW 04:05:12 10° SSE visible
15 Nov -0.6 03:16:47 12° SE 03:16:47 12° SE 03:17:02 10° SE visible
18 Nov -1.1 17:27:50 10° SSE 17:27:54 10° SSE 17:27:54 10° SSE visible
19 Nov -0.8 18:14:23 10° SW 18:14:55 14° SW 18:14:55 14° SW visible
20 Nov -3.1 17:26:07 10° SSW 17:28:54 42° SSE 17:28:54 42° SSE visible
21 Nov -2.3 16:38:13 10° S 16:40:58 24° SE 16:42:47 16° E visible
21 Nov -0.9 18:14:33 10° W 18:15:42 18° W 18:15:42 18° W visible
